[[{"header":{"parameterUnit":"m.s-1","parameterCategory":1,"la1":30.2991,"la2":30.254,"lo1":-89.0895,"lo2":-89.0444,"dy":0.0017,"dx":0.0017,"nx":28,"ny":28,"refTime":"2024-04-11T03:00:00:Z","depth":0,"parameterNumber":2,"parameterNumberName":"U-component_of_WINDS"},"data":[0,0,0,0,0,0,0,0,0,0,0,0,0,0,0,0,0,0,0,0,0,0,0,0,0,0,0,0,0,0,0,0,0,0,0,0,0,0,0,0,0,0,0,0,0,0,0,0,0,0,0,0,0,0,0,0,0,0,8.7917,8.7919,0,8.8157,8.816,8.8163,8.8064,8.8058,8.8052,8.8047,8.8296,8.8308,8.832,0,0,0,0,0,0,0,0,0,0,0,0,0,8.7375,8.7385,8.7916,8.792,8.7923,8.8157,8.816,8.8163,8.8065,8.8058,8.8051,8.8044,8.8292,8.8307,8.8321,0,0,0,0,0,0,0,0,0,0,0,0,0,8.7612,8.7388,8.7916,8.7901,8.7903,8.8156,8.816,8.8164,8.8066,8.8058,8.8049,8.8041,8.8288,8.8305,8.8323,8.8606,0,0,8.8378,8.8386,0,0,0,0,0,0,0,0,8.7599,8.7632,8.7901,8.7903,8.7905,8.8072,8.806,8.8312,8.8068,8.8004,8.8047,8.8037,8.8229,8.8251,8.8315,8.8618,8.8628,8.8379,8.839,8.8398,8.8403,0,0,0,0,0,0,0,8.7582,8.7621,8.8012,8.7905,8.7907,8.7884,8.7908,8.8108,8.8162,8.8009,8.8003,8.8032,8.8228,8.8298,8.832,8.8632,8.8379,8.8395,8.8406,8.8413,8.9179,8.9188,0,0,0,0,0,0,8.7565,8.7608,8.8004,8.8019,8.7727,8.7901,8.7928,8.8027,8.8159,8.8171,8.8039,8.8027,8.8272,8.8299,8.8329,8.8669,8.8398,8.8415,8.8425,8.917,8.9181,8.9192,0,0,0,0,0,0,8.7554,8.7602,8.7994,8.7812,8.786,8.7919,8.8031,8.8036,8.8106,8.8182,8.8192,8.8101,8.8266,8.8303,8.8538,8.8677,8.8423,8.8439,8.9158,8.9173,8.9187,8.9353,0,0,0,0,0,0,8.7539,8.7598,8.7706,8.7815,8.787,8.8199,8.804,8.8047,8.8137,8.8122,8.8242,8.8254,8.8262,8.8511,8.8556,8.8697,8.8453,8.9146,8.9165,8.9182,8.9335,8.9371,8.9402,0,0,0,0,0,8.752,8.7743,8.7712,8.776,8.8006,8.8207,8.8239,8.8243,8.8148,8.8257,8.8306,8.825,8.8654,8.8536,8.8585,8.8734,8.9138,8.916,8.9181,8.932,8.9364,8.9401,0,0,0,0,0,0,8.765,8.7757,8.7723,8.7989,8.809,8.819,8.8328,8.8289,8.842,8.8401,8.8402,8.843,8.8672,8.8726,8.8593,8.9015,8.8881,8.8914,8.8971,8.9013,8.9046,8.9028,8.8468,0,0,0,0,0,8.7709,8.7863,8.7949,8.8175,8.8227,8.8269,8.8357,8.8351,8.8456,8.8499,8.8565,8.867,8.882,8.8919,8.9062,8.9342,8.9367,8.9468,8.9501,8.9528,8.9557,8.971,8.9756,8.9262,8.9262,8.9262,0,0,8.7833,8.7911,8.8008,8.8203,8.828,8.844,8.8306,8.8481,8.86,8.8525,8.8751,8.8803,8.892,8.9179,8.9296,8.9231,8.9699,8.9556,8.9577,8.9591,8.9737,8.9783,8.9825,8.9277,8.9274,8.9272,0,0,8.8142,8.8216,8.8413,8.8493,8.8612,8.8638,8.8685,8.8793,8.8824,8.905,8.8998,8.914,8.9399,8.9484,8.9562,8.9903,8.9857,8.995,9.0124,9.0273,9.0312,9.0347,9.0469,9.0513,8.9977,8.9978,8.9978,0,8.8283,8.8521,8.8519,8.8699,8.8786,8.8725,8.8925,8.9003,8.9163,8.9225,8.915,8.9474,8.9548,8.9826,8.991,8.9974,9.0029,8.9937,9.0306,9.0341,9.0373,9.049,9.0537,8.9989,8.9987,8.9986,8.9985,0,8.8688,8.8854,8.8999,8.9154,8.9257,8.9446,8.9474,8.9579,8.9564,8.9599,8.983,8.9917,9.0077,9.0142,9.013,9.0419,9.0376,9.0304,9.017,9.0431,9.0541,9.0586,9.0004,9.0,8.9997,8.9994,0,0,8.9087,8.9237,8.9291,8.9361,8.9487,8.9616,8.9802,8.9957,9.0048,9.016,9.0317,9.0537,9.0472,9.056,9.0557,9.0688,9.0954,9.06,9.0602,9.0663,9.1279,9.1333,9.1385,9.0923,9.0931,9.0938,9.1269,0,8.9406,8.9732,8.9736,9.0036,9.019,9.0134,9.0296,9.0392,9.0429,9.0566,9.0607,9.0764,9.0665,9.0718,9.0845,9.0894,9.1077,9.087,9.107,9.1077,9.1044,9.1442,9.15,9.1809,9.1312,9.132,9.1325,0,8.9823,8.9947,9.0263,9.0367,9.0432,9.0578,9.072,9.0851,9.0959,9.0977,9.1075,9.1052,9.1243,9.1102,9.1366,9.1225,9.1307,9.1344,9.1356,9.1376,9.1218,9.1474,9.1907,9.1954,9.1393,9.1387,9.1382,0,9.0083,9.033,9.0551,9.0612,9.0739,9.0843,9.09,9.0999,9.1092,9.1217,9.1277,9.1423,9.1504,9.1617,9.1635,9.153,9.19,9.1761,9.1922,9.1922,9.2003,9.1998,9.2456,9.2054,9.2054,9.2053,9.2052,0,9.044,9.0636,9.0669,9.0806,9.1023,9.1026,9.1241,9.129,9.1379,9.1524,9.1484,9.1622,9.1636,9.1778,9.1792,9.2009,9.2045,9.2066,9.2068,9.2071,9.2068,9.2125,9.2105,9.2065,9.2062,9.206,9.2058,0,9.0769,9.0799,9.1036,9.1136,9.1166,9.1322,9.1408,9.1539,9.1571,9.1756,9.1799,9.1852,9.2016,9.2044,9.2239,9.2249,9.2508,9.2488,9.2472,9.247,9.2629,9.2614,9.3142,9.3211,9.2763,9.2767,9.277,0,9.0996,9.1145,9.1261,9.1354,9.1417,9.1569,9.1664,9.1672,9.1772,9.1905,9.202,9.2181,9.231,9.2576,9.2632,9.2781,9.2764,9.2938,9.2786,9.2784,9.2768,9.2759,9.2774,9.2968,9.2973,9.2977,9.298,0,9.1395,9.1403,9.154,9.1683,9.1797,9.191,9.2017,9.2096,9.2118,9.2233,9.2401,9.2501,9.2699,9.2859,9.3007,9.3067,9.3029,9.3027,9.3073,9.3077,9.3063,9.3074,9.2553,9.3016,9.3012,9.3009,9.3007,9.3006,9.1681,9.1811,9.1912,9.2067,9.2148,9.2249,9.2376,9.2424,9.2564,9.2725,9.2721,9.2906,9.301,9.3204,9.3274,9.3418,9.3362,9.3428,9.3445,9.3461,9.3477,9.3038,9.3445,9.3444,9.3443,9.3443,9.3442,0,9.2079,9.2141,9.2283,9.2434,9.2556,9.2507,9.2623,9.2728,9.289,9.299,9.3117,9.331,9.3465,9.3533,9.3686,9.3789,9.3775,9.3829,9.3822,9.3837,9.3518,9.3464,9.3837,9.3837,9.3837,9.3837,9.3837,9.3837,9.2301,9.2518,9.2538,9.2795,9.2856,9.3036,9.3106,9.3199,9.3279,9.3496,9.3624,9.3666,9.3754,9.3912,9.4053,9.4069,9.4127,9.419,9.4198,9.3899,9.3859,9.3821,9.377,9.4202,9.4203,9.4505,9.4508,9.451]},{"header":{"parameterUnit":"m.s-1","parameterCategory":1,"la1":30.2991,"la2":30.254,"lo1":-89.0895,"lo2":-89.0444,"dy":0.0017,"dx":0.0017,"nx":28,"ny":28,"refTime":"2024-04-11T03:00:00:Z","depth":0,"parameterNumber":3,"parameterNumberName":"V-component_of_WINDS"},"data":[0,0,0,0,0,0,0,0,0,0,0,0,0,0,0,0,0,0,0,0,0,0,0,0,0,0,0,0,0,0,0,0,0,0,0,0,0,0,0,0,0,0,0,0,0,0,0,0,0,0,0,0,0,0,0,0,0,0,0.3428,0.3427,0,0.3419,0.3418,0.3418,0.3402,0.3401,0.3401,0.3401,0.3393,0.3393,0.3393,0,0,0,0,0,0,0,0,0,0,0,0,0,0.3431,0.3431,0.3428,0.3427,0.3427,0.3419,0.3418,0.3418,0.3402,0.3401,0.3401,0.3401,0.3393,0.3393,0.3393,0,0,0,0,0,0,0,0,0,0,0,0,0,0.3426,0.3431,0.3428,0.3418,0.3417,0.3419,0.3418,0.3418,0.3402,0.3401,0.3401,0.34,0.3393,0.3393,0.3393,0.3404,0,0,0.3393,0.3393,0,0,0,0,0,0,0,0,0.3426,0.3426,0.342,0.3419,0.3418,0.3411,0.3417,0.3413,0.3402,0.3408,0.3401,0.34,0.3399,0.3399,0.3398,0.3403,0.3403,0.3393,0.3393,0.3394,0.3394,0,0,0,0,0,0,0,0.3427,0.3426,0.3424,0.3419,0.3418,0.3414,0.3413,0.3416,0.3406,0.3407,0.3406,0.3405,0.3399,0.3398,0.3398,0.3403,0.3393,0.3394,0.3394,0.3394,0.3415,0.3415,0,0,0,0,0,0,0.3428,0.3427,0.3424,0.3424,0.3421,0.3414,0.3413,0.3413,0.3406,0.3405,0.3405,0.3404,0.3398,0.3398,0.3398,0.3409,0.3394,0.3394,0.3394,0.3414,0.3415,0.3415,0,0,0,0,0,0,0.3429,0.3428,0.3425,0.3425,0.3424,0.3415,0.3415,0.3414,0.3413,0.3405,0.3403,0.3407,0.3398,0.3397,0.3402,0.3408,0.3394,0.3394,0.3414,0.3414,0.3415,0.3432,0,0,0,0,0,0,0.3429,0.3429,0.3433,0.3425,0.3424,0.3429,0.3416,0.3414,0.3413,0.3412,0.3406,0.3404,0.3397,0.3402,0.3402,0.3408,0.3394,0.3413,0.3414,0.3415,0.3431,0.3433,0.3435,0,0,0,0,0,0.3429,0.3438,0.3433,0.3433,0.3429,0.343,0.3429,0.3421,0.3414,0.3418,0.3412,0.3404,0.3407,0.3402,0.3402,0.3409,0.3413,0.3414,0.3415,0.343,0.3433,0.3435,0,0,0,0,0,0,0.3448,0.3437,0.3431,0.3438,0.3435,0.3427,0.3432,0.3424,0.3423,0.3422,0.3411,0.341,0.3416,0.3413,0.3407,0.3418,0.3409,0.341,0.342,0.3423,0.3425,0.3426,0.3394,0,0,0,0,0,0.3452,0.3454,0.3445,0.3452,0.345,0.3441,0.3441,0.3435,0.3431,0.343,0.3425,0.3421,0.3421,0.3422,0.3422,0.343,0.3428,0.3434,0.3436,0.3438,0.344,0.3443,0.3445,0.3419,0.3419,0.3419,0,0,0.3463,0.3457,0.3459,0.3455,0.3452,0.3453,0.344,0.3443,0.3443,0.343,0.3434,0.343,0.3425,0.3432,0.3434,0.3429,0.3446,0.344,0.3441,0.3441,0.3444,0.3447,0.3449,0.3419,0.3419,0.3419,0,0,0.3482,0.3478,0.3484,0.348,0.3475,0.3468,0.3469,0.3462,0.3459,0.3462,0.3451,0.3452,0.3453,0.345,0.3449,0.3465,0.3457,0.3465,0.3477,0.348,0.3482,0.3484,0.3489,0.3491,0.3466,0.3466,0.3466,0,0.3496,0.3498,0.3487,0.349,0.3488,0.3475,0.348,0.3477,0.3472,0.3472,0.3466,0.3465,0.3462,0.3466,0.347,0.347,0.347,0.3466,0.3482,0.3484,0.3486,0.3491,0.3493,0.3467,0.3467,0.3467,0.3467,0,0.3515,0.3516,0.352,0.3515,0.3514,0.3518,0.3508,0.3508,0.3501,0.3495,0.3498,0.3493,0.349,0.3491,0.3485,0.3495,0.3491,0.3484,0.3475,0.3489,0.3494,0.3496,0.3469,0.3468,0.3468,0.3468,0,0,0.3547,0.3534,0.3536,0.3533,0.3525,0.3526,0.3529,0.3526,0.3526,0.3523,0.3524,0.3524,0.3517,0.3515,0.3508,0.3511,0.3524,0.3503,0.3503,0.3507,0.3533,0.3539,0.3541,0.3518,0.3519,0.3519,0.3533,0,0.3565,0.3569,0.3559,0.3565,0.3566,0.3552,0.3554,0.355,0.3544,0.3543,0.3537,0.3537,0.3527,0.3526,0.3528,0.3522,0.3529,0.352,0.352,0.352,0.3521,0.3544,0.355,0.3564,0.3535,0.3535,0.3536,0,0.3587,0.3583,0.359,0.358,0.358,0.3582,0.3578,0.3578,0.3572,0.3567,0.3564,0.3556,0.3557,0.3547,0.3549,0.3544,0.3543,0.3539,0.3539,0.3539,0.3529,0.3544,0.3568,0.357,0.3538,0.3538,0.3538,0,0.361,0.3607,0.3609,0.3607,0.3596,0.3598,0.3594,0.3587,0.3586,0.3582,0.3581,0.3577,0.3576,0.3573,0.3564,0.3558,0.3566,0.3556,0.3562,0.3563,0.3566,0.3566,0.359,0.3565,0.3565,0.3565,0.3565,0,0.3631,0.3635,0.3619,0.3621,0.3625,0.3613,0.3617,0.3612,0.3606,0.3606,0.3594,0.3595,0.3582,0.3581,0.3574,0.3576,0.3575,0.3571,0.3569,0.3572,0.3573,0.3572,0.3571,0.3565,0.3565,0.3565,0.3565,0,0.3657,0.3647,0.3649,0.3638,0.3635,0.3639,0.3629,0.363,0.3623,0.3623,0.3623,0.3612,0.3609,0.3599,0.3595,0.359,0.3595,0.3591,0.3597,0.3596,0.3602,0.3602,0.3627,0.363,0.3603,0.3603,0.3603,0,0.3672,0.3675,0.3663,0.3662,0.3658,0.3657,0.3655,0.3643,0.3641,0.3633,0.3635,0.3632,0.3629,0.3626,0.3618,0.3614,0.361,0.3619,0.3609,0.3612,0.361,0.361,0.361,0.3621,0.3622,0.3622,0.3622,0,0.3698,0.3693,0.369,0.3685,0.3683,0.3679,0.3674,0.3674,0.366,0.3659,0.3656,0.3654,0.3648,0.3645,0.364,0.3635,0.3626,0.3625,0.3626,0.363,0.3633,0.3631,0.3602,0.3625,0.3624,0.3624,0.3624,0.3624,0.3719,0.372,0.3712,0.3709,0.3704,0.3699,0.3699,0.3692,0.3689,0.3684,0.3676,0.3675,0.3667,0.3659,0.3655,0.3653,0.3648,0.365,0.365,0.3651,0.3652,0.3633,0.3652,0.3652,0.3652,0.3651,0.3651,0,0.3745,0.3738,0.3736,0.3729,0.3726,0.3717,0.3711,0.3709,0.3707,0.3701,0.3698,0.3694,0.369,0.3681,0.3676,0.3676,0.3672,0.3676,0.3676,0.3674,0.3657,0.3656,0.3679,0.3679,0.3679,0.3679,0.3679,0.3679,0.3758,0.3759,0.3752,0.3751,0.3744,0.3742,0.3739,0.3734,0.3729,0.3725,0.3722,0.3715,0.3707,0.3702,0.3698,0.3695,0.3694,0.3698,0.3694,0.3678,0.3676,0.3673,0.3673,0.3698,0.3698,0.3712,0.3712,0.3712]}]]